When you browse on this site, cookies collect data to enhance your experience and personalize the content and advertising you see.
Visit our Privacy Policy to learn more. By continuing to use the site, you agree to this use of cookies and data.
  • In Österreich
  • Länderverzeichnis
  • Für 7 Tage
  • Wassertemperatur
  • Satellitenkarten
  • Wetterkarte
  • News
  • Widgets
  • user-avatar
    Anmelden

    Stündliche Wetter Puebla

    Heute, 17 Dezember, Montag

    Zeit Temperatur Niederschläge Wind Luftdruck Luftfeuchtigkeit
    00:00 +12°C° 0 mm 1 m/S 590 mmHg 66%
    01:00 +11°C° 0 mm 1 m/S 589 mmHg 67%
    02:00 +11°C° 0 mm 1 m/S 589 mmHg 68%
    03:00 +11°C° 0 mm 1 m/S 589 mmHg 69%
    04:00 +10°C° 0 mm 1 m/S 589 mmHg 69%
    05:00 +10°C° 0 mm 1 m/S 589 mmHg 70%
    06:00 +12°C° 0 mm 1 m/S 590 mmHg 64%
    07:00 +13°C° 0 mm 1 m/S 591 mmHg 59%
    08:00 +14°C° 0 mm 1 m/S 591 mmHg 54%
    09:00 +16°C° 0 mm 1 m/S 592 mmHg 48%
    10:00 +19°C° 0 mm 1 m/S 592 mmHg 43%
    11:00 +19°C° 0 mm 2 m/S 593 mmHg 37%
    12:00 +20°C° 0 mm 2 m/S 592 mmHg 37%
    13:00 +20°C° 0 mm 2 m/S 592 mmHg 36%
    14:00 +20°C° 0 mm 3 m/S 591 mmHg 35%
    15:00 +19°C° 0 mm 2 m/S 591 mmHg 41%
    16:00 +17°C° 0 mm 2 m/S 590 mmHg 46%
    17:00 +16°C° 0 mm 1 m/S 589 mmHg 52%
    18:00 +15°C° 0 mm 1 m/S 589 mmHg 55%
    19:00 +14°C° 0 mm 1 m/S 589 mmHg 59%
    20:00 +13°C° 0 mm 1 m/S 589 mmHg 62%
    21:00 +13°C° 0 mm 1 m/S 589 mmHg 63%
    22:00 +12°C° 0 mm 1 m/S 589 mmHg 64%
    23:00 +12°C° 0 mm 1 m/S 589 mmHg 65%

    Morgen, 18 Dezember, Dienstag

    Zeit Temperatur Niederschläge Wind Luftdruck Luftfeuchtigkeit
    00:00 +12°C° 0 mm 1 m/S 588 mmHg 66%
    01:00 +11°C° 0 mm 1 m/S 588 mmHg 67%
    02:00 +11°C° 0 mm 1 m/S 587 mmHg 68%
    03:00 +11°C° 0 mm 1 m/S 587 mmHg 69%
    04:00 +11°C° 0 mm 1 m/S 587 mmHg 71%
    05:00 +10°C° 0 mm 1 m/S 587 mmHg 72%
    06:00 +12°C° 0 mm 1 m/S 588 mmHg 67%
    07:00 +13°C° 0 mm 1 m/S 589 mmHg 62%
    08:00 +15°C° 0 mm 1 m/S 590 mmHg 57%
    09:00 +18°C° 0 mm 1 m/S 590 mmHg 53%
    10:00 +18°C° 0 mm 2 m/S 590 mmHg 48%
    11:00 +20°C° 0 mm 3 m/S 591 mmHg 43%
    12:00 +20°C° 0 mm 3 m/S 590 mmHg 42%
    13:00 +21°C° 0 mm 3 m/S 589 mmHg 41%
    14:00 +21°C° 0 mm 4 m/S 589 mmHg 41%
    15:00 +19°C° 0 mm 3 m/S 588 mmHg 46%
    16:00 +18°C° 0 mm 3 m/S 588 mmHg 51%
    17:00 +16°C° 0 mm 2 m/S 587 mmHg 56%
    18:00 +15°C° 0 mm 2 m/S 587 mmHg 59%
    19:00 +15°C° 0 mm 2 m/S 587 mmHg 62%
    20:00 +14°C° 0 mm 1 m/S 587 mmHg 65%
    21:00 +13°C° 0 mm 1 m/S 587 mmHg 67%
    22:00 +13°C° 0 mm 1 m/S 587 mmHg 68%
    23:00 +13°C° 0 mm 1 m/S 587 mmHg 70%

    übermorgen, 19 Dezember, Mittwoch

    Zeit Temperatur Niederschläge Wind Luftdruck Luftfeuchtigkeit
    00:00 +12°C° 0 mm 1 m/S 586 mmHg 72%
    01:00 +12°C° 0 mm 1 m/S 586 mmHg 75%
    02:00 +11°C° 0 mm 1 m/S 585 mmHg 77%
    03:00 +11°C° 0 mm 1 m/S 585 mmHg 78%
    04:00 +11°C° 0 mm 1 m/S 585 mmHg 79%
    05:00 +10°C° 0 mm 1 m/S 585 mmHg 80%
    06:00 +11°C° 0 mm 1 m/S 586 mmHg 75%
    07:00 +13°C° 0 mm 1 m/S 587 mmHg 71%
    08:00 +14°C° 0 mm 1 m/S 588 mmHg 67%
    09:00 +15°C° 0 mm 2 m/S 588 mmHg 59%
    10:00 +17°C° 0 mm 3 m/S 588 mmHg 52%
    11:00 +19°C° 0 mm 4 m/S 589 mmHg 45%
    12:00 +19°C° 0 mm 4 m/S 588 mmHg 44%
    13:00 +19°C° 0 mm 5 m/S 588 mmHg 42%
    14:00 +20°C° 0 mm 5 m/S 587 mmHg 41%
    15:00 +17°C° 0 mm 5 m/S 587 mmHg 46%
    16:00 +17°C° 0 mm 4 m/S 586 mmHg 51%
    17:00 +16°C° 0 mm 3 m/S 586 mmHg 56%
    18:00 +14°C° 0 mm 3 m/S 586 mmHg 59%
    19:00 +14°C° 0 mm 2 m/S 586 mmHg 62%
    20:00 +13°C° 0 mm 1 m/S 586 mmHg 65%
    21:00 +12°C° 0 mm 1 m/S 586 mmHg 65%
    22:00 +12°C° 0 mm 1 m/S 586 mmHg 66%
    23:00 +11°C° 0 mm 1 m/S 586 mmHg 66%

    20 Dezember, Donnerstag

    Zeit Temperatur Niederschläge Wind Luftdruck Luftfeuchtigkeit
    00:00 +11°C° 0 mm 1 m/S 586 mmHg 67%
    01:00 +11°C° 0 mm 1 m/S 586 mmHg 68%
    02:00 +10°C° 0 mm 1 m/S 585 mmHg 69%
    03:00 +10°C° 0 mm 1 m/S 585 mmHg 69%
    04:00 +9°C° 0 mm 1 m/S 585 mmHg 69%
    05:00 +9°C° 0 mm 1 m/S 585 mmHg 70%
    06:00 +11°C° 0 mm 1 m/S 586 mmHg 63%
    07:00 +12°C° 0 mm 1 m/S 588 mmHg 55%
    08:00 +14°C° 0 mm 1 m/S 589 mmHg 48%
    09:00 +16°C° 0 mm 2 m/S 590 mmHg 41%
    10:00 +17°C° 0 mm 2 m/S 590 mmHg 34%
    11:00 +19°C° 0 mm 2 m/S 591 mmHg 26%
    12:00 +20°C° 0 mm 2 m/S 590 mmHg 25%
    13:00 +20°C° 0 mm 2 m/S 590 mmHg 25%
    14:00 +21°C° 0 mm 2 m/S 590 mmHg 24%
    15:00 +19°C° 0 mm 2 m/S 589 mmHg 31%
    16:00 +17°C° 0 mm 2 m/S 589 mmHg 38%
    17:00 +16°C° 0 mm 2 m/S 588 mmHg 46%
    18:00 +15°C° 0 mm 2 m/S 589 mmHg 53%
    19:00 +13°C° 0 mm 3 m/S 589 mmHg 61%
    20:00 +12°C° 0 mm 3 m/S 589 mmHg 68%
    21:00 +11°C° 0 mm 3 m/S 589 mmHg 71%
    22:00 +12°C° 0 mm 2 m/S 589 mmHg 74%
    23:00 +10°C° 0 mm 2 m/S 588 mmHg 76%

    21 Dezember, Freitag

    Zeit Temperatur Niederschläge Wind Luftdruck Luftfeuchtigkeit
    00:00 +10°C° 0 mm 2 m/S 588 mmHg 78%
    01:00 +9°C° 0 mm 2 m/S 587 mmHg 79%
    02:00 +9°C° 0 mm 2 m/S 587 mmHg 80%
    03:00 +8°C° 0 mm 2 m/S 587 mmHg 81%
    04:00 +8°C° 0 mm 2 m/S 587 mmHg 82%
    05:00 +8°C° 0 mm 2 m/S 587 mmHg 82%
    06:00 +9°C° 0 mm 2 m/S 588 mmHg 76%
    07:00 +10°C° 0 mm 2 m/S 589 mmHg 70%
    08:00 +12°C° 0 mm 2 m/S 590 mmHg 64%
    09:00 +14°C° 0 mm 2 m/S 590 mmHg 54%
    10:00 +16°C° 0 mm 2 m/S 591 mmHg 45%
    11:00 +19°C° 0 mm 1 m/S 592 mmHg 35%
    12:00 +19°C° 0 mm 2 m/S 591 mmHg 33%
    13:00 +19°C° 0 mm 2 m/S 591 mmHg 31%
    14:00 +20°C° 0 mm 2 m/S 590 mmHg 29%
    15:00 +18°C° 0 mm 2 m/S 590 mmHg 35%
    16:00 +17°C° 0 mm 2 m/S 589 mmHg 42%
    17:00 +15°C° 0 mm 2 m/S 589 mmHg 49%
    18:00 +14°C° 0 mm 2 m/S 589 mmHg 54%
    19:00 +13°C° 0 mm 1 m/S 589 mmHg 60%
    20:00 +12°C° 0 mm 1 m/S 589 mmHg 66%
    21:00 +11°C° 0 mm 1 m/S 588 mmHg 66%
    22:00 +11°C° 0 mm 1 m/S 588 mmHg 67%
    23:00 +11°C° 0 mm 1 m/S 588 mmHg 68%

    22 Dezember, Samstag

    Zeit Temperatur Niederschläge Wind Luftdruck Luftfeuchtigkeit
    00:00 +10°C° 0 mm 1 m/S 587 mmHg 69%
    01:00 +10°C° 0 mm 1 m/S 587 mmHg 69%
    02:00 +9°C° 0 mm 1 m/S 587 mmHg 69%
    03:00 +9°C° 0 mm 1 m/S 587 mmHg 69%
    04:00 +9°C° 0 mm 1 m/S 587 mmHg 69%
    05:00 +9°C° 0 mm 1 m/S 587 mmHg 69%
    06:00 +10°C° 0 mm 1 m/S 588 mmHg 62%
    07:00 +12°C° 0 mm 1 m/S 589 mmHg 55%
    08:00 +14°C° 0 mm 1 m/S 590 mmHg 48%
    09:00 +16°C° 0 mm 1 m/S 590 mmHg 41%
    10:00 +19°C° 0 mm 1 m/S 591 mmHg 34%
    11:00 +20°C° 0 mm 1 m/S 591 mmHg 27%
    12:00 +20°C° 0 mm 2 m/S 591 mmHg 26%
    13:00 +20°C° 0 mm 2 m/S 590 mmHg 26%
    14:00 +21°C° 0 mm 2 m/S 590 mmHg 25%
    15:00 +19°C° 0 mm 2 m/S 589 mmHg 30%
    16:00 +17°C° 0 mm 2 m/S 589 mmHg 36%
    17:00 +16°C° 0 mm 2 m/S 588 mmHg 41%
    18:00 +15°C° 0 mm 1 m/S 588 mmHg 46%
    19:00 +14°C° 0 mm 1 m/S 588 mmHg 50%
    20:00 +13°C° 0 mm 1 m/S 588 mmHg 55%
    21:00 +12°C° 0 mm 1 m/S 588 mmHg 56%
    22:00 +12°C° 0 mm 1 m/S 588 mmHg 56%
    23:00 +11°C° 0 mm 1 m/S 588 mmHg 57%
    Mehr zeigen